[[{"header":{"parameterUnit":"m.s-1","parameterCategory":2,"la1":30.2991,"la2":30.254,"lo1":-89.0895,"lo2":-89.0444,"dy":0.0017,"dx":0.0017,"nx":28,"ny":28,"refTime":"2025-03-28T09:00:00:Z","depth":"0","parameterNumber":2,"parameterNumberName":"U-component_of_CURRENTS"},"data":[0,0,0,0,0,0,0,0,0,0,0,0,0,0,0,0,0,0,0,0,0,0,0,0,0,0,0,0,0,0,0,0,0,0,0,0,0,0,0,0,0,0,0,0,0,0,0,0,0,0,0,0,0,0,0,0,0,0,-0.216,-0.2161,0,-0.2187,-0.2187,-0.2187,-0.2094,-0.2091,-0.2089,-0.2087,-0.2071,-0.2073,-0.2075,0,0,0,0,0,0,0,0,0,0,0,0,0,-0.1981,-0.1985,-0.216,-0.2161,-0.2162,-0.2187,-0.2187,-0.2187,-0.2094,-0.2091,-0.2088,-0.2086,-0.2071,-0.2073,-0.2075,0,0,0,0,0,0,0,0,0,0,0,0,0,-0.2035,-0.1986,-0.216,-0.2122,-0.2119,-0.2187,-0.2187,-0.2187,-0.2095,-0.2091,-0.2088,-0.2084,-0.207,-0.2073,-0.2075,-0.2164,0,0,-0.2084,-0.2085,0,0,0,0,0,0,0,0,-0.2032,-0.2041,-0.2127,-0.2125,-0.2122,-0.2137,-0.2119,-0.2179,-0.2096,-0.2099,-0.2087,-0.2083,-0.2095,-0.2096,-0.2103,-0.2163,-0.2162,-0.2084,-0.2086,-0.2087,-0.2088,0,0,0,0,0,0,0,-0.2028,-0.2039,-0.2166,-0.2128,-0.2125,-0.2088,-0.2091,-0.2129,-0.2113,-0.2099,-0.2093,-0.2105,-0.2092,-0.21,-0.2102,-0.2162,-0.2084,-0.2086,-0.2088,-0.2089,-0.2221,-0.2223,0,0,0,0,0,0,-0.2042,-0.2037,-0.2166,-0.2168,-0.2072,-0.2094,-0.2098,-0.2132,-0.2113,-0.2108,-0.2108,-0.21,-0.2098,-0.2099,-0.2101,-0.2164,-0.2087,-0.2089,-0.2091,-0.2219,-0.2221,-0.2223,0,0,0,0,0,0,-0.2038,-0.2054,-0.2165,-0.2104,-0.2116,-0.2102,-0.2141,-0.2135,-0.2137,-0.2121,-0.2114,-0.2115,-0.2095,-0.2097,-0.2122,-0.2164,-0.209,-0.2093,-0.2217,-0.222,-0.2222,-0.2316,0,0,0,0,0,0,-0.2033,-0.2053,-0.2073,-0.2106,-0.212,-0.2216,-0.2145,-0.2138,-0.2152,-0.2143,-0.2127,-0.2121,-0.2092,-0.2118,-0.2124,-0.2166,-0.2095,-0.2215,-0.2218,-0.2222,-0.2311,-0.2322,-0.2332,0,0,0,0,0,-0.2027,-0.2094,-0.2075,-0.2089,-0.2152,-0.2219,-0.2224,-0.2196,-0.2157,-0.2179,-0.2149,-0.2121,-0.2144,-0.2122,-0.2129,-0.2173,-0.2213,-0.2217,-0.2221,-0.2306,-0.232,-0.2331,0,0,0,0,0,0,-0.2027,-0.2092,-0.2071,-0.2151,-0.2179,-0.2205,-0.2234,-0.2214,-0.2212,-0.2196,-0.2156,-0.2152,-0.2183,-0.2175,-0.2152,-0.2219,-0.2172,-0.2178,-0.2234,-0.2247,-0.2257,-0.2253,-0.2097,0,0,0,0,0,-0.204,-0.2101,-0.2141,-0.22,-0.2226,-0.2229,-0.2248,-0.2236,-0.2245,-0.2239,-0.2219,-0.2206,-0.2214,-0.2224,-0.2226,-0.2287,-0.2236,-0.2315,-0.2325,-0.2334,-0.2336,-0.2309,-0.2317,-0.2237,-0.2237,-0.2237,0,0,-0.2049,-0.2098,-0.2125,-0.2203,-0.2224,-0.2275,-0.2232,-0.2284,-0.2306,-0.2244,-0.2264,-0.2246,-0.2235,-0.2275,-0.229,-0.2271,-0.2326,-0.234,-0.2347,-0.2344,-0.2314,-0.2321,-0.2328,-0.224,-0.224,-0.2239,0,0,-0.2118,-0.2154,-0.2223,-0.2262,-0.2315,-0.2323,-0.2343,-0.2372,-0.2364,-0.2396,-0.2344,-0.2352,-0.237,-0.2365,-0.2367,-0.245,-0.2376,-0.245,-0.2511,-0.2487,-0.2492,-0.2497,-0.2417,-0.2414,-0.2463,-0.2463,-0.2463,0,-0.2116,-0.221,-0.225,-0.2325,-0.2351,-0.235,-0.2405,-0.2426,-0.2443,-0.2439,-0.241,-0.241,-0.2415,-0.2448,-0.2472,-0.2476,-0.2419,-0.2465,-0.2498,-0.2502,-0.2505,-0.2422,-0.2417,-0.2468,-0.2467,-0.2467,-0.2466,0,-0.2229,-0.2292,-0.2348,-0.2426,-0.2464,-0.2524,-0.2551,-0.2568,-0.255,-0.2542,-0.2555,-0.2548,-0.2535,-0.2555,-0.2545,-0.2579,-0.2514,-0.2507,-0.2463,-0.2518,-0.2427,-0.2421,-0.2475,-0.2473,-0.2472,-0.2471,0,0,-0.223,-0.2391,-0.2399,-0.2428,-0.2515,-0.2548,-0.261,-0.2642,-0.2637,-0.2655,-0.2641,-0.2691,-0.2653,-0.2654,-0.2639,-0.2641,-0.2626,-0.2592,-0.2589,-0.2505,-0.2515,-0.2443,-0.2427,-0.2614,-0.2614,-0.2614,-0.2433,0,-0.2282,-0.2427,-0.249,-0.2569,-0.2627,-0.2648,-0.2687,-0.271,-0.2705,-0.2692,-0.2698,-0.2685,-0.2702,-0.268,-0.2695,-0.263,-0.2615,-0.2672,-0.248,-0.2474,-0.2399,-0.2422,-0.2388,-0.2222,-0.2425,-0.2424,-0.2423,0,-0.2333,-0.2427,-0.2536,-0.2609,-0.2632,-0.2669,-0.2683,-0.2719,-0.2728,-0.2719,-0.2721,-0.2696,-0.271,-0.2704,-0.2643,-0.2667,-0.2608,-0.2562,-0.2554,-0.245,-0.2391,-0.2206,-0.2201,-0.2208,-0.2412,-0.2413,-0.2414,0,-0.2272,-0.2423,-0.2499,-0.2536,-0.2643,-0.2661,-0.2689,-0.2712,-0.2712,-0.2719,-0.2696,-0.27,-0.2663,-0.263,-0.2561,-0.259,-0.2449,-0.247,-0.2343,-0.2333,-0.225,-0.2234,-0.2226,-0.2424,-0.2425,-0.2425,-0.2426,0,-0.2276,-0.2315,-0.2473,-0.2512,-0.2542,-0.2624,-0.2624,-0.2651,-0.2666,-0.2636,-0.2692,-0.2651,-0.2644,-0.2568,-0.2527,-0.2393,-0.2417,-0.2343,-0.2294,-0.2279,-0.2269,-0.2227,-0.2235,-0.2418,-0.242,-0.2421,-0.2422,0,-0.2157,-0.2289,-0.2356,-0.2489,-0.2518,-0.252,-0.2574,-0.2557,-0.2609,-0.2565,-0.2565,-0.258,-0.2489,-0.2446,-0.2344,-0.2316,-0.2174,-0.2163,-0.2119,-0.2071,-0.1991,-0.2005,-0.1863,-0.1815,-0.1999,-0.1996,-0.1994,0,-0.2109,-0.2147,-0.2292,-0.2314,-0.2365,-0.2402,-0.2406,-0.2494,-0.2479,-0.2503,-0.2457,-0.2405,-0.2337,-0.2177,-0.2119,-0.2,-0.2015,-0.1895,-0.1983,-0.1976,-0.1955,-0.1953,-0.1925,-0.1886,-0.1883,-0.1881,-0.1879,0,-0.197,-0.2024,-0.2076,-0.2146,-0.2177,-0.2214,-0.2243,-0.2239,-0.2309,-0.2293,-0.2252,-0.2219,-0.2122,-0.2012,-0.1892,-0.1831,-0.1872,-0.1841,-0.186,-0.189,-0.1859,-0.1792,-0.1981,-0.1857,-0.1859,-0.1861,-0.1862,-0.1863,-0.1818,-0.1808,-0.189,-0.1924,-0.1968,-0.1998,-0.1971,-0.2016,-0.1997,-0.1967,-0.2024,-0.197,-0.1952,-0.1806,-0.174,-0.1663,-0.1681,-0.1655,-0.1668,-0.1664,-0.1648,-0.1766,-0.1585,-0.1586,-0.1586,-0.1587,-0.1587,0,-0.1634,-0.1645,-0.1659,-0.1716,-0.1693,-0.1797,-0.1819,-0.1779,-0.1715,-0.1757,-0.1726,-0.1747,-0.167,-0.1665,-0.1609,-0.1545,-0.1528,-0.1502,-0.1534,-0.1512,-0.1636,-0.1668,-0.1466,-0.1466,-0.1466,-0.1466,-0.1466,-0.1466,-0.154,-0.1492,-0.1513,-0.1437,-0.1461,-0.1411,-0.1405,-0.1388,-0.1406,-0.1383,-0.1426,-0.1516,-0.1547,-0.1641,-0.1574,-0.1507,-0.1479,-0.1406,-0.1402,-0.1563,-0.1581,-0.1598,-0.1635,-0.1428,-0.1428,-0.1269,-0.1268,-0.1267]},{"header":{"parameterUnit":"m.s-1","parameterCategory":2,"la1":30.2991,"la2":30.254,"lo1":-89.0895,"lo2":-89.0444,"dy":0.0017,"dx":0.0017,"nx":28,"ny":28,"refTime":"2025-03-28T09:00:00:Z","depth":"0","parameterNumber":3,"parameterNumberName":"V-component_of_CURRENTS"},"data":[0,0,0,0,0,0,0,0,0,0,0,0,0,0,0,0,0,0,0,0,0,0,0,0,0,0,0,0,0,0,0,0,0,0,0,0,0,0,0,0,0,0,0,0,0,0,0,0,0,0,0,0,0,0,0,0,0,0,-0.0183,-0.0183,0,-0.0149,-0.0149,-0.0148,-0.0136,-0.0136,-0.0136,-0.0136,-0.0075,-0.0073,-0.0071,0,0,0,0,0,0,0,0,0,0,0,0,0,-0.0169,-0.017,-0.0184,-0.0183,-0.0183,-0.0149,-0.0149,-0.0148,-0.0136,-0.0136,-0.0136,-0.0136,-0.0075,-0.0073,-0.0071,0,0,0,0,0,0,0,0,0,0,0,0,0,-0.0159,-0.017,-0.0184,-0.0172,-0.0171,-0.0149,-0.0149,-0.0148,-0.0136,-0.0136,-0.0136,-0.0136,-0.0076,-0.0073,-0.0071,-0.0053,0,0,-0.0063,-0.0062,0,0,0,0,0,0,0,0,-0.016,-0.016,-0.0174,-0.0173,-0.0171,-0.0146,-0.0121,-0.0115,-0.0136,-0.0149,-0.0136,-0.0136,-0.0096,-0.0092,-0.0086,-0.005,-0.0047,-0.0063,-0.0061,-0.006,-0.0059,0,0,0,0,0,0,0,-0.0161,-0.0161,-0.017,-0.0174,-0.0172,-0.0144,-0.0144,-0.0119,-0.0122,-0.0148,-0.0147,-0.0143,-0.0095,-0.0088,-0.0084,-0.0046,-0.0063,-0.0061,-0.0059,-0.0058,0.0087,0.0089,0,0,0,0,0,0,-0.0168,-0.0162,-0.0171,-0.0169,-0.0165,-0.0145,-0.0144,-0.0155,-0.0123,-0.0118,-0.0143,-0.0142,-0.0093,-0.0087,-0.0082,-0.0025,-0.006,-0.0058,-0.0056,0.0084,0.0087,0.009,0,0,0,0,0,0,-0.0168,-0.017,-0.0173,-0.0163,-0.0162,-0.0146,-0.0157,-0.0154,-0.0146,-0.0119,-0.0114,-0.0138,-0.0093,-0.0086,-0.0053,-0.0023,-0.0057,-0.0054,0.0082,0.0085,0.0088,0.0069,0,0,0,0,0,0,-0.0168,-0.017,-0.0181,-0.0165,-0.0163,-0.0159,-0.0156,-0.0153,-0.0143,-0.0143,-0.0113,-0.0108,-0.0092,-0.0057,-0.0051,-0.002,-0.0052,0.0079,0.0083,0.0087,0.0066,0.0071,0.0075,0,0,0,0,0,-0.0168,-0.0185,-0.0182,-0.0183,-0.0178,-0.0159,-0.0156,-0.0144,-0.0143,-0.0138,-0.0115,-0.0109,-0.0024,-0.0054,-0.0047,-0.0015,0.0077,0.0082,0.0087,0.0065,0.007,0.0075,0,0,0,0,0,0,-0.0187,-0.0184,-0.0181,-0.0198,-0.0178,-0.0157,-0.0154,-0.0144,-0.0123,-0.0123,-0.0098,-0.009,-0.0045,-0.0022,-0.0056,0.0046,0.0036,0.0042,0.0016,0.0022,0.0026,0.0008,-0.005,0,0,0,0,0,-0.0196,-0.0208,-0.019,-0.0202,-0.0193,-0.0173,-0.0164,-0.0155,-0.0133,-0.0125,-0.0101,-0.0061,-0.0016,0.0005,0.0042,0.0084,0.011,0.012,0.0124,0.0127,0.0123,0.0192,0.0201,0.0107,0.0107,0.0107,0,0,-0.0208,-0.0207,-0.0215,-0.0206,-0.0192,-0.0182,-0.0168,-0.0157,-0.014,-0.012,-0.0091,-0.0054,-0.0001,0.0049,0.0074,0.0069,0.017,0.0134,0.0135,0.0129,0.0199,0.0207,0.0215,0.011,0.011,0.0109,0,0,-0.0235,-0.0234,-0.025,-0.0233,-0.0214,-0.0192,-0.0189,-0.0162,-0.014,-0.0108,-0.0076,-0.0025,0.0029,0.0079,0.0111,0.0165,0.0187,0.0191,0.0196,0.0264,0.0271,0.0278,0.0319,0.033,0.0196,0.0196,0.0196,0,-0.0251,-0.0271,-0.0248,-0.0251,-0.0239,-0.0198,-0.0199,-0.0165,-0.0128,-0.0097,-0.01,0.001,0.0047,0.0128,0.015,0.0172,0.0204,0.0162,0.0265,0.0273,0.028,0.0321,0.0333,0.0196,0.0196,0.0196,0.0196,0,-0.0287,-0.0295,-0.0298,-0.0289,-0.0266,-0.0261,-0.0208,-0.0175,-0.0142,-0.01,-0.0022,0.003,0.0097,0.0132,0.0151,0.0238,0.0242,0.0254,0.0239,0.0287,0.0328,0.0341,0.0195,0.0195,0.0195,0.0196,0,0,-0.0346,-0.0331,-0.0333,-0.0329,-0.0288,-0.0272,-0.0225,-0.0164,-0.0122,-0.0067,-0.0012,0.0078,0.0113,0.0153,0.0199,0.0259,0.0335,0.0275,0.0278,0.0291,0.047,0.0413,0.0421,0.0364,0.0366,0.0368,0.0475,0,-0.0383,-0.0408,-0.0377,-0.0374,-0.0377,-0.0307,-0.0264,-0.0194,-0.0125,-0.0055,0.0031,0.01,0.0123,0.0157,0.0222,0.0309,0.0369,0.0304,0.0442,0.0446,0.0369,0.0434,0.0434,0.0524,0.0487,0.0489,0.0491,0,-0.0433,-0.0441,-0.0463,-0.0416,-0.0406,-0.0387,-0.0299,-0.0252,-0.0127,-0.0073,0.0016,0.009,0.0194,0.02,0.036,0.0317,0.039,0.0451,0.0457,0.0416,0.0412,0.0475,0.0549,0.0655,0.051,0.0508,0.0507,0,-0.0502,-0.0491,-0.0512,-0.0503,-0.0447,-0.0424,-0.0379,-0.0264,-0.0205,-0.0082,-0.0018,0.0103,0.0176,0.0281,0.0403,0.0394,0.0566,0.0573,0.0592,0.0588,0.0621,0.0615,0.0791,0.0689,0.0689,0.0689,0.0688,0,-0.0564,-0.0572,-0.055,-0.0563,-0.0553,-0.0486,-0.0436,-0.0367,-0.0255,-0.0166,-0.0039,0.0056,0.0204,0.0327,0.0414,0.0532,0.058,0.06,0.0619,0.0613,0.0606,0.0723,0.0759,0.0693,0.0692,0.0691,0.069,0,-0.0637,-0.063,-0.0644,-0.0608,-0.0594,-0.0588,-0.0492,-0.0437,-0.0325,-0.0208,-0.0165,0.0034,0.0189,0.0322,0.0501,0.0551,0.0708,0.0692,0.0653,0.0664,0.0743,0.0776,0.0927,0.0958,0.0731,0.073,0.0729,0,-0.0678,-0.0702,-0.0695,-0.0695,-0.0682,-0.065,-0.0612,-0.0504,-0.0431,-0.0209,-0.0153,0.0036,0.0165,0.0379,0.0508,0.0636,0.072,0.0707,0.0685,0.0755,0.0809,0.0824,0.0841,0.0734,0.0734,0.0734,0.0733,0,-0.0739,-0.0741,-0.0749,-0.0767,-0.075,-0.071,-0.0646,-0.0605,-0.0442,-0.0345,-0.0175,-0.006,0.0185,0.0343,0.0504,0.0585,0.075,0.0698,0.0819,0.0859,0.0847,0.0882,0.0637,0.073,0.073,0.073,0.0731,0.0731,-0.0769,-0.0792,-0.0806,-0.0812,-0.0796,-0.0756,-0.0724,-0.0638,-0.0555,-0.0381,-0.0254,-0.0081,0.0214,0.0441,0.0532,0.0748,0.0736,0.0819,0.0864,0.0881,0.088,0.059,0.0663,0.0663,0.0663,0.0663,0.0663,0,-0.0792,-0.0811,-0.0832,-0.0835,-0.0824,-0.0802,-0.0724,-0.0675,-0.0598,-0.0448,-0.0325,-0.0001,0.0243,0.0517,0.0831,0.0935,0.0961,0.1002,0.1077,0.1093,0.0902,0.087,0.0932,0.0932,0.0932,0.0932,0.0932,0.0932,-0.08,-0.0832,-0.0846,-0.085,-0.0846,-0.0816,-0.0778,-0.071,-0.0605,-0.0407,-0.0218,-0.0062,0.0362,0.0894,0.1187,0.1196,0.1305,0.127,0.133,0.1254,0.1242,0.1231,0.1213,0.1347,0.1348,0.1513,0.1515,0.1516]}],[{"header":{"parameterUnit":"m.s-1","parameterCategory":2,"la1":30.2991,"la2":30.254,"lo1":-89.0895,"lo2":-89.0444,"dy":0.0017,"dx":0.0017,"nx":28,"ny":28,"refTime":"2025-03-28T09:00:00:Z","depth":"2","parameterNumber":2,"parameterNumberName":"U-component_of_CURRENTS"},"data":[0,0,0,0,0,0,0,0,0,0,0,0,0,0,0,0,0,0,0,0,0,0,0,0,0,0,0,0,0,0,0,0,0,0,0,0,0,0,0,0,0,0,0,0,0,0,0,0,0,0,0,0,0,0,0,0,0,0,-0.1859,-0.1859,0,-0.1889,-0.1889,-0.1889,-0.1836,-0.1834,-0.1833,-0.1831,-0.184,-0.1842,-0.1844,0,0,0,0,0,0,0,0,0,0,0,0,0,-0.1756,-0.1758,-0.1859,-0.1859,-0.1859,-0.1889,-0.1889,-0.1889,-0.1836,-0.1834,-0.1832,-0.183,-0.1839,-0.1842,-0.1844,0,0,0,0,0,0,0,0,0,0,0,0,0,-0.1794,-0.1759,-0.1858,-0.1837,-0.1835,-0.1889,-0.1889,-0.1889,-0.1837,-0.1834,-0.1832,-0.1829,-0.1839,-0.1841,-0.1844,-0.1913,0,0,-0.1853,-0.1854,0,0,0,0,0,0,0,0,-0.1792,-0.1798,-0.184,-0.1839,-0.1837,-0.1857,-0.1856,-0.1897,-0.1838,-0.1836,-0.1831,-0.1828,-0.1846,-0.1848,-0.1859,-0.1914,-0.1914,-0.1853,-0.1855,-0.1856,-0.1857,0,0,0,0,0,0,0,-0.1789,-0.1796,-0.187,-0.184,-0.1839,-0.1826,-0.1829,-0.1864,-0.1854,-0.1836,-0.1832,-0.1837,-0.1844,-0.1856,-0.1859,-0.1914,-0.1853,-0.1855,-0.1857,-0.1858,-0.1953,-0.1954,0,0,0,0,0,0,-0.179,-0.1794,-0.1869,-0.1871,-0.1808,-0.183,-0.1833,-0.1852,-0.1854,-0.1852,-0.1839,-0.1835,-0.1853,-0.1855,-0.1859,-0.192,-0.1856,-0.1858,-0.186,-0.1952,-0.1953,-0.1954,0,0,0,0,0,0,-0.1788,-0.1798,-0.1868,-0.1832,-0.184,-0.1835,-0.1857,-0.1854,-0.1871,-0.1857,-0.1854,-0.1858,-0.1851,-0.1855,-0.1867,-0.192,-0.186,-0.1862,-0.1951,-0.1952,-0.1954,-0.2055,0,0,0,0,0,0,-0.1786,-0.1797,-0.181,-0.1833,-0.1842,-0.1905,-0.1859,-0.1857,-0.1878,-0.1872,-0.1873,-0.1871,-0.1849,-0.1862,-0.1869,-0.1923,-0.1864,-0.195,-0.1952,-0.1953,-0.2051,-0.206,-0.2067,0,0,0,0,0,-0.1782,-0.182,-0.1811,-0.1819,-0.1861,-0.1907,-0.1911,-0.1897,-0.1881,-0.19,-0.1876,-0.1871,-0.1877,-0.1866,-0.1874,-0.1929,-0.1949,-0.1951,-0.1953,-0.2047,-0.2058,-0.2067,0,0,0,0,0,0,-0.1787,-0.1819,-0.1809,-0.1855,-0.1877,-0.1898,-0.1922,-0.1917,-0.1919,-0.1909,-0.1887,-0.1884,-0.1913,-0.1904,-0.1892,-0.1955,-0.1913,-0.1916,-0.1981,-0.1992,-0.2,-0.2008,-0.1867,0,0,0,0,0,-0.1795,-0.1832,-0.1853,-0.1893,-0.1909,-0.1921,-0.1938,-0.1931,-0.1937,-0.1936,-0.1932,-0.1925,-0.1933,-0.1944,-0.1944,-0.1996,-0.1957,-0.2032,-0.204,-0.2047,-0.2056,-0.2048,-0.2057,-0.196,-0.196,-0.196,0,0,-0.1806,-0.1833,-0.1851,-0.1896,-0.1917,-0.1959,-0.1925,-0.1965,-0.1993,-0.1941,-0.1978,-0.1959,-0.1948,-0.1982,-0.1997,-0.1982,-0.2045,-0.205,-0.2057,-0.2062,-0.2051,-0.2061,-0.2069,-0.1962,-0.1961,-0.1961,0,0,-0.185,-0.1879,-0.1913,-0.1944,-0.1979,-0.1999,-0.2016,-0.2041,-0.2042,-0.2075,-0.2034,-0.2038,-0.2067,-0.2058,-0.2061,-0.2123,-0.2084,-0.2131,-0.2198,-0.2191,-0.2199,-0.2206,-0.2132,-0.2132,-0.2144,-0.2145,-0.2145,0,-0.1855,-0.191,-0.1932,-0.1976,-0.2008,-0.2024,-0.2068,-0.2094,-0.2112,-0.211,-0.2093,-0.2105,-0.2104,-0.2135,-0.2153,-0.2148,-0.211,-0.2167,-0.2204,-0.221,-0.2215,-0.2138,-0.2136,-0.215,-0.2149,-0.2149,-0.2148,0,-0.1917,-0.1962,-0.2,-0.2061,-0.2098,-0.2152,-0.2183,-0.2209,-0.2219,-0.222,-0.2239,-0.2225,-0.2222,-0.2238,-0.2225,-0.2269,-0.2215,-0.221,-0.2183,-0.2231,-0.2146,-0.2142,-0.2157,-0.2155,-0.2154,-0.2152,0,0,-0.1922,-0.2019,-0.2031,-0.2058,-0.2146,-0.2178,-0.2247,-0.2289,-0.2302,-0.2328,-0.2329,-0.2372,-0.2344,-0.2345,-0.2328,-0.2341,-0.2345,-0.2308,-0.2306,-0.2242,-0.2281,-0.2189,-0.2175,-0.2355,-0.2356,-0.2356,-0.2193,0,-0.1959,-0.2038,-0.2091,-0.2176,-0.2215,-0.2264,-0.2316,-0.2349,-0.2369,-0.2373,-0.2374,-0.2374,-0.2394,-0.2381,-0.2408,-0.2341,-0.2347,-0.2387,-0.2237,-0.2231,-0.2152,-0.2173,-0.2064,-0.1907,-0.2189,-0.2188,-0.2188,0,-0.1985,-0.2039,-0.2118,-0.2198,-0.2221,-0.2285,-0.2345,-0.2384,-0.2406,-0.2407,-0.2425,-0.2405,-0.2417,-0.2425,-0.2384,-0.2407,-0.2369,-0.2329,-0.2321,-0.2203,-0.2135,-0.191,-0.1889,-0.2181,-0.2181,-0.2182,-0.2182,0,-0.1937,-0.205,-0.2112,-0.2149,-0.225,-0.2294,-0.2345,-0.2387,-0.2389,-0.2418,-0.2397,-0.242,-0.2383,-0.2382,-0.2312,-0.2352,-0.2226,-0.2257,-0.2136,-0.2125,-0.1985,-0.1962,-0.2251,-0.2252,-0.2252,-0.2252,-0.2253,0,-0.1946,-0.1989,-0.2099,-0.2135,-0.2182,-0.2264,-0.2303,-0.2342,-0.237,-0.2338,-0.2403,-0.2349,-0.2379,-0.2306,-0.2284,-0.2164,-0.22,-0.214,-0.2092,-0.2011,-0.1993,-0.2205,-0.2202,-0.2246,-0.2248,-0.2249,-0.225,0,-0.187,-0.1958,-0.201,-0.2127,-0.2158,-0.2181,-0.2259,-0.2254,-0.2316,-0.227,-0.2272,-0.2269,-0.2189,-0.2175,-0.2106,-0.2083,-0.2002,-0.1957,-0.1825,-0.1768,-0.1912,-0.1916,-0.182,-0.1815,-0.1812,-0.1809,-0.1806,0,-0.1836,-0.1859,-0.1961,-0.1974,-0.2037,-0.2091,-0.2097,-0.2195,-0.2184,-0.2184,-0.2125,-0.208,-0.2011,-0.187,-0.1829,-0.1754,-0.1849,-0.1602,-0.1698,-0.1913,-0.1876,-0.1885,-0.1894,-0.1522,-0.1517,-0.1514,-0.1511,0,-0.1739,-0.1778,-0.1813,-0.1841,-0.1875,-0.1903,-0.1941,-0.193,-0.1998,-0.1985,-0.1916,-0.1878,-0.1777,-0.1649,-0.1571,-0.1521,-0.1618,-0.1522,-0.1764,-0.1666,-0.1625,-0.1591,-0.161,-0.1477,-0.148,-0.1483,-0.1484,-0.1486,-0.1631,-0.1618,-0.1656,-0.1674,-0.1699,-0.1701,-0.1681,-0.172,-0.17,-0.1662,-0.1683,-0.1597,-0.1568,-0.1406,-0.1313,-0.1262,-0.1393,-0.136,-0.1375,-0.1394,-0.1406,-0.1364,-0.1164,-0.1165,-0.1166,-0.1168,-0.1169,0,-0.1479,-0.1481,-0.1479,-0.1498,-0.1463,-0.1547,-0.1542,-0.1497,-0.144,-0.1443,-0.1415,-0.1245,-0.1177,-0.1158,-0.1048,-0.1026,-0.1055,-0.0976,-0.1035,-0.1068,-0.1097,-0.11,-0.0773,-0.0771,-0.077,-0.0769,0,0,-0.1396,-0.1341,-0.135,-0.1264,-0.1273,-0.1206,-0.1186,-0.1145,-0.1134,-0.105,-0.1026,-0.1115,-0.1131,-0.095,-0.0909,-0.0828,-0.0939,-0.0785,-0.1104,-0.1205,-0.1234,-0.1317,-0.1356,0,0,0,0,0]},{"header":{"parameterUnit":"m.s-1","parameterCategory":2,"la1":30.2991,"la2":30.254,"lo1":-89.0895,"lo2":-89.0444,"dy":0.0017,"dx":0.0017,"nx":28,"ny":28,"refTime":"2025-03-28T09:00:00:Z","depth":"2","parameterNumber":3,"parameterNumberName":"V-component_of_CURRENTS"},"data":[0,0,0,0,0,0,0,0,0,0,0,0,0,0,0,0,0,0,0,0,0,0,0,0,0,0,0,0,0,0,0,0,0,0,0,0,0,0,0,0,0,0,0,0,0,0,0,0,0,0,0,0,0,0,0,0,0,0,-0.0263,-0.0263,0,-0.0247,-0.0246,-0.0246,-0.0226,-0.0226,-0.0226,-0.0225,-0.0177,-0.0176,-0.0175,0,0,0,0,0,0,0,0,0,0,0,0,0,-0.0223,-0.0224,-0.0263,-0.0263,-0.0263,-0.0247,-0.0246,-0.0246,-0.0226,-0.0226,-0.0226,-0.0225,-0.0177,-0.0176,-0.0175,0,0,0,0,0,0,0,0,0,0,0,0,0,-0.0227,-0.0225,-0.0263,-0.0251,-0.025,-0.0247,-0.0246,-0.0246,-0.0226,-0.0226,-0.0225,-0.0225,-0.0178,-0.0176,-0.0175,-0.0173,0,0,-0.017,-0.0169,0,0,0,0,0,0,0,0,-0.0226,-0.0228,-0.0253,-0.0252,-0.0251,-0.0239,-0.0215,-0.022,-0.0226,-0.0235,-0.0225,-0.0225,-0.0195,-0.0192,-0.019,-0.017,-0.0168,-0.017,-0.0169,-0.0168,-0.0168,0,0,0,0,0,0,0,-0.0226,-0.0228,-0.0256,-0.0253,-0.0252,-0.0228,-0.0229,-0.0215,-0.0216,-0.0234,-0.0233,-0.0232,-0.0194,-0.0191,-0.0188,-0.0168,-0.017,-0.0168,-0.0168,-0.0167,-0.0081,-0.008,0,0,0,0,0,0,-0.0233,-0.0229,-0.0256,-0.0255,-0.0238,-0.023,-0.023,-0.0242,-0.0217,-0.0213,-0.0232,-0.0231,-0.0194,-0.019,-0.0186,-0.0144,-0.0168,-0.0167,-0.0166,-0.0083,-0.0081,-0.0079,0,0,0,0,0,0,-0.0233,-0.0236,-0.0257,-0.0241,-0.0242,-0.0231,-0.0245,-0.0242,-0.0235,-0.0216,-0.0212,-0.0227,-0.0194,-0.0189,-0.0173,-0.0144,-0.0166,-0.0165,-0.0084,-0.0082,-0.008,-0.0084,0,0,0,0,0,0,-0.0232,-0.0237,-0.0247,-0.0242,-0.0243,-0.0256,-0.0245,-0.0242,-0.0236,-0.0234,-0.021,-0.0206,-0.0193,-0.0176,-0.0172,-0.0142,-0.0163,-0.0086,-0.0083,-0.0081,-0.0086,-0.0082,-0.008,0,0,0,0,0,-0.0231,-0.0252,-0.0248,-0.0251,-0.0259,-0.0256,-0.0254,-0.0244,-0.0236,-0.0235,-0.0219,-0.0206,-0.0156,-0.0175,-0.017,-0.0139,-0.0087,-0.0084,-0.0081,-0.0087,-0.0083,-0.008,0,0,0,0,0,0,-0.0244,-0.0252,-0.0247,-0.0271,-0.0262,-0.0253,-0.0255,-0.0244,-0.0231,-0.0229,-0.0207,-0.0201,-0.017,-0.0156,-0.0177,-0.0103,-0.0112,-0.0108,-0.0118,-0.0114,-0.0111,-0.0125,-0.0162,0,0,0,0,0,-0.0251,-0.0268,-0.0263,-0.028,-0.0278,-0.0264,-0.0261,-0.0253,-0.0241,-0.0235,-0.0215,-0.0186,-0.0155,-0.0139,-0.0116,-0.0088,-0.0061,-0.0057,-0.0055,-0.0052,-0.0058,0.0017,0.0026,-0.007,-0.007,-0.007,0,0,-0.0262,-0.0267,-0.0278,-0.0283,-0.0277,-0.0276,-0.0261,-0.026,-0.0248,-0.0232,-0.0211,-0.0183,-0.0146,-0.0111,-0.0093,-0.0096,-0.001,-0.0049,-0.0047,-0.0054,0.0021,0.003,0.0038,-0.0068,-0.0068,-0.0068,0,0,-0.0293,-0.0294,-0.0319,-0.0311,-0.0305,-0.0288,-0.0287,-0.0272,-0.0253,-0.0233,-0.0206,-0.0171,-0.013,-0.0095,-0.0071,-0.0039,-0.0,-0.0013,-0.0007,0.0065,0.0073,0.0081,0.0123,0.0135,-0.0008,-0.0008,-0.0008,0,-0.0305,-0.0335,-0.0322,-0.0336,-0.0331,-0.0293,-0.0304,-0.0276,-0.0254,-0.0231,-0.0226,-0.0145,-0.0121,-0.0062,-0.0046,-0.0033,0.0009,-0.0028,0.0068,0.0076,0.0084,0.0126,0.0138,-0.0007,-0.0007,-0.0007,-0.0007,0,-0.0353,-0.0369,-0.0379,-0.0381,-0.0367,-0.0371,-0.033,-0.0302,-0.0268,-0.0236,-0.0175,-0.0138,-0.0086,-0.0059,-0.0046,0.0033,0.0044,0.0059,0.0054,0.0093,0.0135,0.0148,-0.0007,-0.0007,-0.0007,-0.0007,0,0,-0.0404,-0.0414,-0.0416,-0.0419,-0.0392,-0.0385,-0.0348,-0.0303,-0.0267,-0.0221,-0.0177,-0.011,-0.0075,-0.0046,-0.0008,0.0053,0.0138,0.0081,0.0085,0.0112,0.0292,0.0227,0.0235,0.0182,0.0184,0.0186,0.0296,0,-0.0444,-0.0488,-0.0469,-0.0477,-0.0491,-0.043,-0.0395,-0.034,-0.0278,-0.0221,-0.0152,-0.0096,-0.0069,-0.0037,0.003,0.0103,0.0174,0.0105,0.0258,0.0262,0.0191,0.0248,0.0214,0.0303,0.0309,0.0311,0.0313,0,-0.0498,-0.0519,-0.0555,-0.0525,-0.0521,-0.0506,-0.043,-0.0394,-0.0292,-0.0243,-0.0165,-0.0101,-0.0016,0.0006,0.0161,0.0122,0.0211,0.027,0.0277,0.0223,0.0221,0.0269,0.0327,0.0335,0.0333,0.0332,0.033,0,-0.0554,-0.0566,-0.0596,-0.0593,-0.0559,-0.054,-0.0502,-0.0407,-0.0361,-0.0253,-0.0202,-0.0091,-0.0032,0.009,0.0197,0.0205,0.0357,0.0385,0.0414,0.0409,0.041,0.04,0.052,0.052,0.052,0.052,0.0519,0,-0.061,-0.0626,-0.0625,-0.0643,-0.0642,-0.0594,-0.0552,-0.0493,-0.0401,-0.0335,-0.022,-0.0163,0.0002,0.0104,0.0206,0.0323,0.0372,0.042,0.0441,0.0405,0.0395,0.0443,0.0432,0.0524,0.0523,0.0522,0.0521,0,-0.0668,-0.0675,-0.0701,-0.0685,-0.0677,-0.0676,-0.0603,-0.056,-0.0465,-0.0377,-0.0341,-0.02,-0.0057,0.0087,0.0271,0.0327,0.0444,0.0481,0.0401,0.041,0.0453,0.0442,0.0551,0.055,0.0548,0.0548,0.0547,0,-0.0706,-0.0733,-0.0745,-0.0754,-0.0748,-0.0729,-0.0703,-0.0615,-0.056,-0.0407,-0.0375,-0.0216,-0.0106,0.0095,0.0233,0.0402,0.0442,0.0451,0.0458,0.045,0.0461,0.0451,0.0441,0.047,0.0469,0.0468,0.0467,0,-0.0761,-0.0765,-0.0782,-0.0813,-0.0808,-0.0787,-0.0742,-0.0715,-0.0586,-0.0505,-0.0397,-0.0306,-0.0095,0.0051,0.024,0.033,0.0413,0.0433,0.0488,0.0438,0.0376,0.0384,0.0378,0.0457,0.0458,0.0459,0.046,0.046,-0.0786,-0.081,-0.0832,-0.085,-0.0849,-0.0829,-0.0805,-0.0741,-0.0672,-0.0528,-0.0456,-0.0307,-0.0149,0.0104,0.0229,0.0354,0.0382,0.0424,0.0428,0.0433,0.0374,0.031,0.0369,0.0369,0.037,0.037,0.037,0,-0.081,-0.0829,-0.0857,-0.0872,-0.0871,-0.086,-0.0811,-0.0768,-0.0696,-0.057,-0.0458,-0.0288,-0.0122,0.0061,0.0242,0.0339,0.0362,0.0361,0.0383,0.039,0.0397,0.0337,0.0323,0.0323,0.0323,0.0323,0,0,-0.0818,-0.0852,-0.0868,-0.0881,-0.0885,-0.0867,-0.0841,-0.0777,-0.0686,-0.0576,-0.0465,-0.0329,-0.0122,-0.0002,0.0138,0.0239,0.0288,0.0245,0.0268,0.0283,0.0289,0.0413,0.0326,0,0,0,0,0]}],[{"header":{"parameterUnit":"m.s-1","parameterCategory":2,"la1":30.2991,"la2":30.254,"lo1":-89.0895,"lo2":-89.0444,"dy":0.0017,"dx":0.0017,"nx":28,"ny":28,"refTime":"2025-03-28T09:00:00:Z","depth":"4","parameterNumber":2,"parameterNumberName":"U-component_of_CURRENTS"},"data":[0,0,0,0,0,0,0,0,0,0,0,0,0,0,0,0,0,0,0,0,0,0,0,0,0,0,0,0,0,0,0,0,0,0,0,0,0,0,0,0,0,0,0,0,0,0,0,0,0,0,0,0,0,0,0,0,0,0,-0.1054,-0.1053,0,-0.1015,-0.1015,-0.1015,-0.1033,-0.1034,-0.1035,-0.1036,-0.098,-0.0978,-0.0976,0,0,0,0,0,0,0,0,0,0,0,0,0,-0.1093,-0.1093,-0.1054,-0.1053,-0.1053,-0.1015,-0.1015,-0.1014,-0.1033,-0.1034,-0.1036,-0.1037,-0.0981,-0.0978,-0.0975,0,0,0,0,0,0,0,0,0,0,0,0,0,-0.1068,-0.1093,-0.1054,-0.1058,-0.1058,-0.1016,-0.1015,-0.1014,-0.1033,-0.1034,-0.1036,-0.1037,-0.0982,-0.0978,-0.0975,-0.0923,0,0,-0.0964,-0.0962,0,0,0,0,0,0,0,0,-0.1069,-0.1066,-0.1058,-0.1057,-0.1057,-0.1031,-0.1008,-0.0983,-0.1033,-0.1042,-0.1036,-0.1038,-0.0994,-0.099,-0.098,-0.0921,-0.0918,-0.0964,-0.0961,-0.096,-0.0959,0,0,0,0,0,0,0,-0.1071,-0.1068,-0.1039,-0.1057,-0.1057,-0.1044,-0.1042,-0.1003,-0.101,-0.1042,-0.1043,-0.1038,-0.0994,-0.0983,-0.0978,-0.0917,-0.0964,-0.096,-0.0958,-0.0957,-0.0871,-0.0871,0,0,0,0,0,0,-0.1076,-0.107,-0.104,-0.1038,-0.1067,-0.1042,-0.104,-0.1038,-0.1011,-0.1009,-0.1037,-0.1039,-0.0989,-0.0983,-0.0977,-0.1008,-0.096,-0.0956,-0.0954,-0.0872,-0.0871,-0.0871,0,0,0,0,0,0,-0.1077,-0.1074,-0.1042,-0.1053,-0.1048,-0.104,-0.1037,-0.1036,-0.1046,-0.1008,-0.1005,-0.105,-0.099,-0.0982,-0.0974,-0.1003,-0.0955,-0.0952,-0.0872,-0.0872,-0.0871,-0.101,0,0,0,0,0,0,-0.1079,-0.1075,-0.1087,-0.1053,-0.1047,-0.104,-0.1035,-0.1034,-0.1039,-0.1042,-0.1017,-0.1012,-0.099,-0.0979,-0.097,-0.0997,-0.0949,-0.0872,-0.0872,-0.0871,-0.1006,-0.1015,-0.1022,0,0,0,0,0,-0.108,-0.108,-0.1088,-0.1085,-0.106,-0.104,-0.1037,-0.1036,-0.1039,-0.1049,-0.1038,-0.1014,-0.0971,-0.0977,-0.0966,-0.0992,-0.0872,-0.0872,-0.0871,-0.1002,-0.1013,-0.1022,0,0,0,0,0,0,-0.1108,-0.1081,-0.1089,-0.1084,-0.1078,-0.1044,-0.1042,-0.1044,-0.104,-0.1046,-0.1016,-0.1011,-0.1014,-0.097,-0.0977,-0.0961,-0.0915,-0.0912,-0.1017,-0.1027,-0.1035,-0.1034,-0.0946,0,0,0,0,0,-0.1118,-0.1112,-0.1093,-0.1094,-0.1085,-0.1068,-0.1063,-0.1066,-0.1051,-0.1052,-0.104,-0.1014,-0.0996,-0.099,-0.0961,-0.095,-0.0908,-0.0954,-0.0963,-0.097,-0.0958,-0.0938,-0.0945,-0.0871,-0.0871,-0.0871,0,0,-0.1133,-0.1115,-0.1117,-0.1101,-0.1085,-0.1081,-0.1069,-0.1064,-0.1077,-0.1042,-0.1058,-0.1044,-0.0998,-0.1002,-0.0997,-0.0976,-0.0969,-0.097,-0.0978,-0.0961,-0.0939,-0.0946,-0.0953,-0.087,-0.087,-0.087,0,0,-0.1135,-0.1137,-0.1126,-0.1122,-0.1108,-0.1099,-0.1104,-0.109,-0.1101,-0.1104,-0.1094,-0.1107,-0.1058,-0.1061,-0.1045,-0.1072,-0.1015,-0.1052,-0.11,-0.1083,-0.1089,-0.1094,-0.1061,-0.1062,-0.1058,-0.1058,-0.1058,0,-0.116,-0.1141,-0.1124,-0.1113,-0.1111,-0.1111,-0.1109,-0.1115,-0.1114,-0.1119,-0.1122,-0.1099,-0.1088,-0.1096,-0.1121,-0.1097,-0.106,-0.1079,-0.1098,-0.1102,-0.1105,-0.1069,-0.1069,-0.1065,-0.1064,-0.1063,-0.1063,0,-0.114,-0.1145,-0.1134,-0.1124,-0.1126,-0.1124,-0.1128,-0.1153,-0.1163,-0.1162,-0.1181,-0.118,-0.1167,-0.1176,-0.116,-0.118,-0.1138,-0.1118,-0.1085,-0.1122,-0.108,-0.1078,-0.1074,-0.1072,-0.107,-0.1068,0,0,-0.1145,-0.1126,-0.1127,-0.1129,-0.1134,-0.1126,-0.1161,-0.1172,-0.1188,-0.1211,-0.1229,-0.1243,-0.1249,-0.1231,-0.1233,-0.1233,-0.1255,-0.1192,-0.1188,-0.118,-0.1197,-0.115,-0.1141,-0.124,-0.124,-0.124,-0.1165,0,-0.1139,-0.1118,-0.1118,-0.1127,-0.1117,-0.1145,-0.1169,-0.1191,-0.1208,-0.1232,-0.1253,-0.1263,-0.1266,-0.1284,-0.1288,-0.1266,-0.1249,-0.1275,-0.114,-0.1136,-0.1109,-0.1137,-0.1239,-0.1162,-0.1161,-0.1161,-0.116,0,-0.1119,-0.1105,-0.1104,-0.1118,-0.1116,-0.1138,-0.1173,-0.1198,-0.1237,-0.1252,-0.1282,-0.1286,-0.1327,-0.1312,-0.129,-0.1303,-0.125,-0.1223,-0.1219,-0.1118,-0.1083,-0.1109,-0.1154,-0.1155,-0.1155,-0.1155,-0.1156,0,-0.1102,-0.1101,-0.1099,-0.1104,-0.112,-0.1146,-0.117,-0.1206,-0.1215,-0.1278,-0.1282,-0.1319,-0.1327,-0.1307,-0.1279,-0.1278,-0.1223,-0.1212,-0.1106,-0.1101,-0.1107,-0.1101,-0.1153,-0.1153,-0.1153,-0.1153,-0.1153,0,-0.1087,-0.1093,-0.1096,-0.1095,-0.1101,-0.1132,-0.1154,-0.1191,-0.1231,-0.1217,-0.1292,-0.128,-0.1318,-0.1298,-0.1276,-0.1192,-0.1218,-0.1108,-0.1081,-0.1165,-0.1167,-0.1105,-0.1101,-0.115,-0.1151,-0.1151,-0.1152,0,-0.1077,-0.1081,-0.1073,-0.1085,-0.1092,-0.1102,-0.1132,-0.1137,-0.1195,-0.1191,-0.1212,-0.1241,-0.1222,-0.1241,-0.1196,-0.1158,-0.1112,-0.1057,-0.1146,-0.1126,-0.0996,-0.0999,-0.0937,-0.0934,-0.0932,-0.0931,-0.0929,0,-0.106,-0.1056,-0.1051,-0.1035,-0.1046,-0.1063,-0.1064,-0.1119,-0.1111,-0.1136,-0.1113,-0.1121,-0.113,-0.1048,-0.1076,-0.1047,-0.1018,-0.099,-0.0998,-0.0995,-0.0975,-0.0982,-0.0987,-0.0926,-0.0926,-0.0925,-0.0925,0,-0.1022,-0.1032,-0.1022,-0.099,-0.0983,-0.096,-0.0968,-0.0957,-0.0997,-0.1047,-0.1001,-0.1002,-0.0963,-0.0975,-0.0963,-0.0935,-0.1034,-0.0969,-0.0972,-0.098,-0.0982,-0.0966,-0.0973,-0.0918,-0.0919,-0.092,-0.092,0,-0.0983,-0.097,-0.0953,-0.0919,-0.0909,-0.0855,-0.087,-0.0849,-0.0856,-0.0897,-0.0864,-0.0893,-0.0924,-0.0907,-0.0897,-0.0893,-0.0865,-0.0842,-0.0851,-0.0858,-0.0875,-0.0868,-0.0741,0,0,0,0,0,-0.0916,-0.0893,-0.0869,-0.0817,-0.0813,-0.0798,-0.0793,-0.0811,-0.0848,-0.0792,-0.0834,-0.0807,-0.0799,-0.0816,-0.0791,-0.0847,-0.0868,-0.0814,-0.0845,-0.0882,-0.089,-0.092,0,0,0,0,0,0,-0.0862,-0.0853,-0.0842,-0.0748,-0.0704,-0.0676,-0.0672,-0.0691,-0.0671,-0.0722,-0.0725,-0.0766,-0.0775,-0.0807,-0.0779,-0.0784,-0.0788,-0.0839,-0.0837,-0.0878,-0.0884,-0.0891,-0.0925,0,0,0,0,0]},{"header":{"parameterUnit":"m.s-1","parameterCategory":2,"la1":30.2991,"la2":30.254,"lo1":-89.0895,"lo2":-89.0444,"dy":0.0017,"dx":0.0017,"nx":28,"ny":28,"refTime":"2025-03-28T09:00:00:Z","depth":"4","parameterNumber":3,"parameterNumberName":"V-component_of_CURRENTS"},"data":[0,0,0,0,0,0,0,0,0,0,0,0,0,0,0,0,0,0,0,0,0,0,0,0,0,0,0,0,0,0,0,0,0,0,0,0,0,0,0,0,0,0,0,0,0,0,0,0,0,0,0,0,0,0,0,0,0,0,-0.0266,-0.0266,0,-0.0285,-0.0286,-0.0286,-0.0285,-0.0284,-0.0284,-0.0284,-0.0349,-0.0351,-0.0353,0,0,0,0,0,0,0,0,0,0,0,0,0,-0.0214,-0.0215,-0.0266,-0.0266,-0.0266,-0.0285,-0.0286,-0.0286,-0.0285,-0.0284,-0.0284,-0.0284,-0.0348,-0.035,-0.0353,0,0,0,0,0,0,0,0,0,0,0,0,0,-0.0236,-0.0216,-0.0266,-0.0268,-0.0268,-0.0285,-0.0286,-0.0286,-0.0285,-0.0284,-0.0284,-0.0283,-0.0347,-0.035,-0.0353,-0.0382,0,0,-0.0363,-0.0364,0,0,0,0,0,0,0,0,-0.0235,-0.0238,-0.0267,-0.0268,-0.0268,-0.0282,-0.0291,-0.032,-0.0285,-0.0279,-0.0284,-0.0283,-0.033,-0.0335,-0.034,-0.0385,-0.0388,-0.0363,-0.0365,-0.0366,-0.0367,0,0,0,0,0,0,0,-0.0233,-0.0237,-0.0274,-0.0267,-0.0268,-0.0262,-0.0265,-0.0296,-0.0309,-0.028,-0.0279,-0.0281,-0.0331,-0.0337,-0.0341,-0.0389,-0.0363,-0.0365,-0.0367,-0.0369,-0.0482,-0.0484,0,0,0,0,0,0,-0.0231,-0.0236,-0.0274,-0.0275,-0.0249,-0.0264,-0.0267,-0.0278,-0.0307,-0.0311,-0.0281,-0.0281,-0.0332,-0.0338,-0.0344,-0.0386,-0.0366,-0.0369,-0.0371,-0.0481,-0.0483,-0.0484,0,0,0,0,0,0,-0.023,-0.0235,-0.0273,-0.0254,-0.0259,-0.0265,-0.0278,-0.0279,-0.0286,-0.0308,-0.0312,-0.0287,-0.0332,-0.034,-0.0374,-0.0388,-0.037,-0.0373,-0.048,-0.0482,-0.0483,-0.0467,0,0,0,0,0,0,-0.0229,-0.0235,-0.0244,-0.0255,-0.026,-0.0289,-0.0278,-0.028,-0.0287,-0.0286,-0.0315,-0.032,-0.0332,-0.037,-0.0377,-0.0392,-0.0375,-0.0478,-0.0481,-0.0483,-0.0466,-0.0468,-0.0469,0,0,0,0,0,-0.0227,-0.0247,-0.0245,-0.025,-0.0273,-0.0289,-0.0292,-0.0294,-0.0288,-0.0297,-0.0313,-0.0319,-0.0389,-0.0373,-0.0382,-0.0398,-0.0477,-0.048,-0.0483,-0.0465,-0.0467,-0.0469,0,0,0,0,0,0,-0.0232,-0.0248,-0.0247,-0.0271,-0.028,-0.0289,-0.03,-0.0297,-0.0316,-0.0318,-0.0332,-0.034,-0.0374,-0.0395,-0.0376,-0.044,-0.0436,-0.044,-0.0419,-0.0422,-0.0423,-0.0435,-0.0378,0,0,0,0,0,-0.0236,-0.0255,-0.0265,-0.0284,-0.0289,-0.0293,-0.03,-0.0302,-0.0317,-0.0324,-0.0341,-0.0367,-0.0393,-0.0412,-0.0439,-0.0477,-0.048,-0.0495,-0.0497,-0.0498,-0.0516,-0.053,-0.0534,-0.0493,-0.0493,-0.0493,0,0,-0.0244,-0.0255,-0.0266,-0.0286,-0.0293,-0.0313,-0.0297,-0.0312,-0.0328,-0.0331,-0.0361,-0.0372,-0.0404,-0.0439,-0.0458,-0.0458,-0.0506,-0.0502,-0.0502,-0.052,-0.0533,-0.0537,-0.054,-0.0495,-0.0494,-0.0494,0,0,-0.027,-0.0277,-0.0301,-0.0311,-0.0323,-0.0328,-0.0332,-0.0343,-0.0347,-0.0377,-0.0379,-0.0398,-0.0446,-0.0463,-0.048,-0.0514,-0.0511,-0.0525,-0.0548,-0.0559,-0.0562,-0.0565,-0.0543,-0.0544,-0.0529,-0.0529,-0.0529,0,-0.0278,-0.031,-0.031,-0.0334,-0.0346,-0.0337,-0.0363,-0.0369,-0.0389,-0.0399,-0.0391,-0.0445,-0.046,-0.0501,-0.0509,-0.0517,-0.0514,-0.0529,-0.0559,-0.0563,-0.0566,-0.0543,-0.0544,-0.0529,-0.0529,-0.0529,-0.0529,0,-0.0321,-0.0346,-0.036,-0.0388,-0.04,-0.0421,-0.0426,-0.0437,-0.0438,-0.0443,-0.0474,-0.0486,-0.0519,-0.0522,-0.0528,-0.0562,-0.0546,-0.0551,-0.0546,-0.0568,-0.0543,-0.0544,-0.0528,-0.0528,-0.0529,-0.0529,0,0,-0.0348,-0.0385,-0.0391,-0.041,-0.043,-0.0445,-0.047,-0.0492,-0.0503,-0.0517,-0.0539,-0.0569,-0.0561,-0.0581,-0.0579,-0.0592,-0.059,-0.0585,-0.0586,-0.0549,-0.0593,-0.05,-0.0493,-0.0597,-0.0599,-0.0599,-0.0553,0,-0.0384,-0.0438,-0.0445,-0.0492,-0.0519,-0.0516,-0.054,-0.0554,-0.0554,-0.0571,-0.0577,-0.0595,-0.0587,-0.0591,-0.0605,-0.0581,-0.06,-0.0601,-0.0591,-0.059,-0.0495,-0.0495,-0.0603,-0.0554,-0.0555,-0.0555,-0.0555,0,-0.0427,-0.0458,-0.0513,-0.0545,-0.0556,-0.058,-0.0604,-0.0621,-0.0632,-0.063,-0.0643,-0.0636,-0.0638,-0.0639,-0.0624,-0.0621,-0.0625,-0.0614,-0.0612,-0.054,-0.0502,-0.0539,-0.0558,-0.0558,-0.0558,-0.0557,-0.0557,0,-0.0452,-0.0502,-0.0548,-0.0562,-0.0598,-0.062,-0.0635,-0.0647,-0.0656,-0.0661,-0.0663,-0.0662,-0.0659,-0.0654,-0.0602,-0.0622,-0.0577,-0.0599,-0.053,-0.0522,-0.0625,-0.0623,-0.0641,-0.0641,-0.0641,-0.0641,-0.0641,0,-0.049,-0.0526,-0.0565,-0.0591,-0.0638,-0.0648,-0.0683,-0.0689,-0.0699,-0.0707,-0.0694,-0.0692,-0.0671,-0.063,-0.0603,-0.0529,-0.0572,-0.0533,-0.051,-0.0615,-0.0613,-0.0624,-0.0622,-0.0639,-0.064,-0.064,-0.064,0,-0.0516,-0.0543,-0.0594,-0.0638,-0.0654,-0.0686,-0.0715,-0.0729,-0.0728,-0.0736,-0.0737,-0.0715,-0.0644,-0.0589,-0.0555,-0.0518,-0.0461,-0.0448,-0.052,-0.0501,-0.0405,-0.0404,-0.0372,-0.0369,-0.0366,-0.0363,-0.0361,0,-0.0537,-0.0567,-0.0624,-0.0651,-0.0675,-0.0717,-0.074,-0.075,-0.0754,-0.0739,-0.0741,-0.069,-0.066,-0.0505,-0.047,-0.037,-0.0389,-0.0351,-0.0433,-0.04,-0.0381,-0.0385,-0.0387,-0.0357,-0.0356,-0.0355,-0.0354,0,-0.0568,-0.0587,-0.0623,-0.0678,-0.0713,-0.0745,-0.0773,-0.0774,-0.077,-0.0777,-0.0712,-0.0642,-0.0568,-0.0478,-0.0383,-0.0335,-0.0351,-0.0321,-0.0329,-0.0407,-0.0381,-0.0366,-0.0372,-0.0344,-0.0345,-0.0346,-0.0347,0,-0.0581,-0.0609,-0.065,-0.0693,-0.0735,-0.0751,-0.0768,-0.0755,-0.0754,-0.0723,-0.0703,-0.0619,-0.0588,-0.0461,-0.0373,-0.0286,-0.0313,-0.0313,-0.0323,-0.0334,-0.0333,-0.0295,-0.0212,0,0,0,0,0,-0.059,-0.0617,-0.0659,-0.07,-0.0735,-0.0758,-0.0777,-0.0782,-0.0778,-0.072,-0.0702,-0.0617,-0.048,-0.0438,-0.0339,-0.0359,-0.0316,-0.0243,-0.0325,-0.0287,-0.0299,-0.0296,0,0,0,0,0,0,-0.0595,-0.0639,-0.0657,-0.069,-0.0713,-0.0748,-0.0757,-0.0755,-0.0715,-0.0699,-0.0624,-0.0591,-0.0465,-0.0529,-0.0336,-0.0316,-0.0353,-0.0188,-0.0186,-0.028,-0.0291,-0.0301,-0.0302,0,0,0,0,0]}]]